This is the latest recevied weather packets stored in our database for station/object KD4EG. If no packets are shown the sender has not sent any weather packets the latest 10 day(s).
| Time | Temp. | Humidity | Pressure | Rain* | Wind** | Luminosity | Snow |
|---|---|---|---|---|---|---|---|
| 1787831516 | 21.11° C | 95% | 1018.7 hPa | 0 mm | - | 26 W/m² | - |
| 1787831215 | 20.56° C | 95% | 1018.8 hPa | 0 mm | - | 22 W/m² | - |
| 1787830911 | 20.56° C | 96% | 1019 hPa | 0 mm | - | 18 W/m² | - |
| 1787830610 | 20.56° C | 96% | 1018.8 hPa | 0 mm | - | 15 W/m² | - |
| 1787830310 | 20.56° C | 96% | 1019 hPa | 0 mm | - | 15 W/m² | - |
| 1787830010 | 20.56° C | 96% | 1018.9 hPa | 0 mm | - | 11 W/m² | - |
| 1787829704 | 20.56° C | 96% | 1019 hPa | 0 mm | - | 10 W/m² | - |
| 1787829399 | 20.56° C | 96% | 1018.8 hPa | 0 mm | - | 8 W/m² | - |
| 1787829096 | 20.56° C | 97% | 1018.7 hPa | 0 mm | - | 3 W/m² | - |
| 1787828790 | 20.56° C | 97% | 1019 hPa | 0 mm | - | 2 W/m² | - |
| 1787828487 | 20° C | 97% | 1018.7 hPa | 0 mm | - | 1 W/m² | - |
| 1787828186 | 20° C | 96% | 1018.5 hPa | 0 mm | - | 1 W/m² | - |
| 1787827885 | 20° C | 96% | 1018.4 hPa | 0 mm | - | 1 W/m² | - |
| 1787827580 | 20° C | 96% | 1018.3 hPa | 0 mm | - | 0 W/m² | - |
| 1787826668 | 20.56° C | 96% | 1018.4 hPa | 0 mm | - | 0 W/m² | - |
| 1787826364 | 20.56° C | 96% | 1018.4 hPa | 0 mm | - | 0 W/m² | - |
| 1787826061 | 20.56° C | 96% | 1018.5 hPa | 0 mm | - | 0 W/m² | - |
| 1787825759 | 20.56° C | 96% | 1018.2 hPa | 0 mm | - | 0 W/m² | - |
| 1787825458 | 20.56° C | 96% | 1018.1 hPa | 0 mm | - | 0 W/m² | - |
| 1787825157 | 20.56° C | 96% | 1018.2 hPa | 0 mm | - | 0 W/m² | - |
| 1787824855 | 20.56° C | 95% | 1018 hPa | 0 mm | - | 0 W/m² | - |
| 1787824549 | 20.56° C | 95% | 1018 hPa | 0 mm | - | 0 W/m² | - |
| 1787824249 | 20.56° C | 95% | 1018.1 hPa | 0 mm | - | 0 W/m² | - |
| 1787823945 | 20.56° C | 95% | 1017.8 hPa | 0 mm | - | 0 W/m² | - |
| 1787823640 | 20.56° C | 95% | 1018 hPa | 0 mm | - | 0 W/m² | - |
* Rain latest hour (hover to see other rain measurements)
** Current wind speed in m/s (hover to see current wind gust speed)